Hourly Data Report for April 30, 2017

OTTAWA INTL A
ONTARIO

45°19'00.000" N
75°40'00.000" W
114.90 m
6106001
71628
YOW

Download Data

Hourly Data (April 2017)
Hourly Data Report for April 30, 2017
TIME
LST
Temp Definition
°C
Dew Point Definition
°C
Rel Hum Definition
%
Precip. Amount Definition
mm

Wind Dir Definition
10's deg

Wind Spd Definition
km/h
Visibility Definition
km
Stn Press Definition
kPa
Hmdx Definition


Wind Chill Definition


Weather Definition


00:00 4.1 -5.2 51   35 21 24.1 101.34     LegendNANA
01:00 3.6 -5.1 53   36 18 24.1 101.31     Clear
02:00 3.5 -5.0 54   36 17 24.1 101.29     LegendNANA
03:00 3.1 -4.6 57   36 16 24.1 101.36     LegendNANA
04:00 2.9 -4.6 58   2 16 24.1 101.36     Mostly Cloudy
05:00 2.8 -4.7 58   3 15 24.1 101.41     LegendNANA
06:00 2.7 -4.3 60   4 18 24.1 101.37     LegendNANA
07:00 3.1 -4.2 59   5 16 24.1 101.46     Mostly Cloudy
08:00 2.8 -4.4 59   4 16 24.1 101.48     Rain
09:00 2.8 -3.6 63   6 14 24.1 101.48     Rain
10:00 3.2 -1.6 71   9 17 24.1 101.38     Rain
11:00 3.1 -1.7 71   7 19 24.1 101.32     Rain
12:00 3.0 -0.6 77   7 17 24.1 101.19     Rain
13:00 3.1 -0.5 77   9 16 24.1 101.15     Rain
14:00 2.8 0.9 87   7 14 16.1 101.09     Rain
15:00 3.1 1.2 87   6 16 24.1 100.99     LegendNANA
16:00 3.3 1.4 87   6 22 24.1 100.94     Cloudy
17:00 3.5 1.4 86   6 18 24.1 100.97     LegendNANA
18:00 3.4 2.4 93   5 21 24.1 100.83     LegendNANA
19:00 3.8 2.5 91   2 21 24.1 100.90     Rain
20:00 3.5 2.8 95   7 21 24.1 100.62     Rain
21:00 3.6 2.6 93   8 22 24.1 100.48     LegendNANA
22:00 3.5 2.9 96   7 26 24.1 100.29     Rain
23:00 3.6 3.2 97   7 23 16.1 100.17     Rain

Notes on Data Quality.

Legend

  • E = Estimated
  • M = Missing
  • NA = Not Available*
  • [empty] = Indicates an unobserved value
Date modified: